Вернуться в каталог

STARLINK-36448

АктивенСвязьVLEO
NORAD 67354·PAYLOAD·🇺🇸 United States

Запущен Jan 9, 2026 с Cape Canaveral Space Force Station

Loading…

Ближайшие Пролёты (ближайшие 24 часа)

TLE

СвежийSource: CelesTrak SupGP

Эпоха: Sep 15, 2026, 03:06 UTC

1 67354C 26003W   26258.12965278 -.00047606  00000+0 -17244-2 0  2581
2 67354  43.0004 237.2737 0001168 268.0002 159.7626 15.27600636    16

Отслеживайте STARLINK-36448 в реальном времени с AllMySat

Download on the App Store